Regional Weather Roundup
Issued by NWS

Home | Current Version | Previous Version | Graphics & Text | Print | Product List | Glossary On
Versions: 1 2 3 4 5 6 7 8 9 10 11 12 13 14 15 16 17 18 19 20 21 22 23 24 25 26 27 28 29 30 31 32 33 34 35 36 37 38 39 40 41 42 43 44 45 46 47 48 49 50
000
ASUS43 KBIS 281502
RWRND

NORTH DAKOTA REGIONAL WEATHER ROUNDUP
NATIONAL WEATHER SERVICE BISMARCK ND
900 AM CST TUE FEB 28 2017

NOTE: "FAIR" INDICATES FEW OR NO CLOUDS BELOW 12,000 FEET WITH NO
SIGNIFICANT WEATHER AND/OR OBSTRUCTIONS TO VISIBILITY.


NDZ001>003-009>011-017-281600-
NORTHWEST NORTH DAKOTA

CITY           SKY/WX    TMP DP  RH WIND       PRES   REMARKS
WILLISTON      CLOUDY    13  10  88 SE6       29.81F WCI   4
MINOT          FLURRIES   8   5  87 E5        29.89R WCI   0
MINOT AFB      LGT SNOW   5   2  86 CALM      29.89S FOG
$$

NDZ018>021-031>035-040>046-281600-
SOUTHWEST NORTH DAKOTA

CITY           SKY/WX    TMP DP  RH WIND       PRES   REMARKS
BISMARCK       CLOUDY    18  14  84 E12       29.87R WCI   5
DICKINSON      CLOUDY    13  11  92 E7        29.76R FOG     WCI   3
GARRISON         N/A     12   8  84 E8        29.85S WCI   0
HETTINGER ARPT CLOUDY    20  18  92 E10       29.78R FOG     WCI   9
$$

NDZ004>008-012>016-024-026-027-054-281600-
NORTHEAST NORTH DAKOTA

CITY           SKY/WX    TMP DP  RH WIND       PRES   REMARKS
GRAND FORKS    CLOUDY     9   0  67 N13       29.94R WCI  -7
GRND FRKS AFB  CLOUDY     8   1  74 N10       29.94S WCI  -7
DEVILS LAKE    FAIR       1  -3  83 NE5       29.92R WCI  -9
$$

NDZ022-023-025-028>030-036>039-047>053-281600-
SOUTHEAST NORTH DAKOTA

CITY           SKY/WX    TMP DP  RH WIND       PRES   REMARKS
FARGO          MOSUNNY   21  18  88 N12       29.87R WCI   9
JAMESTOWN      FAIR      15  10  80 N12       29.86R WCI   2
$$





USA.gov is the U.S. government's official web portal to all federal, state and local government web resources and services.